Weather History for KLEE - June, 2013

Change the Weather History Date:

Thursday, June 20, 2013

  Actual Average (KMCO) Record (KMCO)
Temperature  
Mean Temperature 83 °F 82 °F  
Max Temperature 93 °F 91 °F 99 °F (1998)
Min Temperature 73 °F 73 °F 64 °F (1933)
Degree Days  
Heating Degree Days 0 0  
Month to date heating degree days 0  
Since 1 June heating degree days 0  
Since 1 July heating degree days 571  
Cooling Degree Days 18 17  
Month to date cooling degree days 320  
Year to date cooling degree days 1121  
Since 1 June cooling degree days 320  
Growing Degree Days 33 (Base 50)    
Moisture  
Dew Point 72 °F    
Average Humidity 81    
Maximum Humidity 94    
Minimum Humidity 45    
Precipitation  
Precipitation 0.81 in 0.26 in 2.00 in (1975)
Month to date precipitation 5.05  
Year to date precipitation 19.68  
Sea Level Pressure  
Sea Level Pressure 30.08 in    
Wind  
Wind Speed 5 mph (SSE)    
Max Wind Speed 32 mph    
Max Gust Speed 45 mph    
Visibility 8 miles    
Events Fog , Rain , Thunderstorm    
T = Trace of Precipitation, MM = Missing Value Source: NWS Daily Summary

Daily Weather History Graph

Daily Weather History Graph

Search for Another Location

Airport or City:

Trip Planner

Search our weather history database for the weather conditions in past years. The results will help you decide how hot, cold, wet, or windy it might be!

Date:

Astronomy

Jun. 20, 2013 Rise Set
Actual Time 6:29 AM EDT 8:28 PM EDT
Civil Twilight 6:02 AM EDT 8:55 PM EDT
Nautical Twilight 5:29 AM EDT 9:28 PM EDT
Astronomical Twilight 4:54 AM EDT 10:03 PM EDT
Moon 5:37 PM EDT (6/20) 3:44 AM EDT (6/20)
Length of Visible Light 14h 53m
Length of Day
13h 59m
Waxing Gibbous, 89% of the Moon is Illuminated
Jun 20
Waxing Gibbous
Jun 23
Full
Jun 30
Last Quarter
Jul 8
New
Jul 15
First Quarter

Hourly Weather History & Observations

Time (EDT) Temp. Heat Index Dew Point Humidity Pressure Visibility Wind Dir Wind Speed Gust Speed Precip Events Conditions
12:53 AM 77.0 °F - 73.0 °F 88% 30.07 in 10.0 mi Calm Calm - N/A   Clear
1:53 AM 75.9 °F - 73.0 °F 91% 30.06 in 10.0 mi Calm Calm - N/A   Clear
2:53 AM 78.1 °F - 73.9 °F 87% 30.05 in 10.0 mi SSW 4.6 mph - N/A   Clear
3:53 AM 78.1 °F - 73.9 °F 87% 30.03 in 10.0 mi SSW 5.8 mph - N/A   Clear
4:53 AM 77.0 °F - 73.9 °F 90% 30.04 in 10.0 mi SW 3.5 mph - N/A   Clear
5:53 AM 75.9 °F - 73.0 °F 91% 30.05 in 10.0 mi Calm Calm - N/A   Clear
6:53 AM 73.9 °F - 72.0 °F 93% 30.07 in 8.0 mi Calm Calm - N/A   Clear
7:53 AM 78.1 °F - 73.9 °F 87% 30.09 in 10.0 mi Calm Calm - N/A   Clear
8:53 AM 81.0 °F 86.2 °F 73.9 °F 79% 30.10 in 10.0 mi SSW 3.5 mph - N/A   Clear
9:53 AM 82.9 °F 90.2 °F 75.0 °F 77% 30.11 in 10.0 mi SSE 4.6 mph - N/A   Clear
10:53 AM 86.0 °F 95.1 °F 75.0 °F 70% 30.11 in 10.0 mi SE 3.5 mph - N/A   Clear
11:53 AM 88.0 °F 94.7 °F 72.0 °F 59% 30.11 in 10.0 mi Calm Calm - N/A   Clear
12:53 PM 89.1 °F 95.0 °F 71.1 °F 55% 30.09 in 10.0 mi SE 3.5 mph - N/A   Clear
1:53 PM 91.0 °F 97.6 °F 71.1 °F 52% 30.07 in 10.0 mi South 6.9 mph - N/A   Partly Cloudy
2:53 PM 93.0 °F 99.0 °F 70.0 °F 47% 30.05 in 10.0 mi WSW 5.8 mph - N/A   Clear
3:53 PM 93.0 °F 97.9 °F 69.1 °F 45% 30.04 in 10.0 mi Calm Calm - N/A   Mostly Cloudy
4:53 PM 86.0 °F 91.5 °F 71.1 °F 61% 30.03 in 2.0 mi ENE 11.5 mph - 0.00 in Rain Light Rain
5:07 PM 75.2 °F - 71.6 °F 89% 30.05 in 0.8 mi SSE 32.2 mph 44.9 mph 0.16 in Rain Heavy Rain
5:12 PM 73.4 °F - 69.8 °F 88% 30.06 in 0.5 mi SSE 23.0 mph 44.9 mph 0.27 in Fog , Rain Heavy Rain
5:26 PM 73.4 °F - 71.6 °F 94% 30.07 in 0.8 mi SE 19.6 mph 27.6 mph 0.40 in Rain Heavy Rain
5:33 PM 75.2 °F - 71.6 °F 89% 30.08 in 1.5 mi SSE 20.7 mph - 0.47 in Rain Heavy Rain
5:53 PM 75.9 °F - 73.0 °F 91% 30.09 in 2.0 mi South 9.2 mph - 0.66 in Rain Rain
6:02 PM 75.2 °F - 71.6 °F 89% 30.08 in 1.5 mi SSE 13.8 mph 19.6 mph 0.14 in Rain Heavy Rain
6:09 PM 75.2 °F - 71.6 °F 89% 30.09 in 3.0 mi ESE 13.8 mph - 0.15 in Rain Light Rain
6:18 PM 75.2 °F - 73.4 °F 94% 30.10 in 10.0 mi ESE 15.0 mph - 0.15 in Rain Light Rain
6:53 PM 75.9 °F - 72.0 °F 87% 30.07 in 10.0 mi SE 15.0 mph - 0.15 in   Scattered Clouds
7:08 PM 77.0 °F - 71.6 °F 83% 30.10 in 10.0 mi South 5.8 mph 17.3 mph N/A Thunderstorm Mostly Cloudy
7:29 PM 77.0 °F - 71.6 °F 83% 30.11 in 10.0 mi SSE 10.4 mph 19.6 mph N/A   Scattered Clouds
7:53 PM 77.0 °F - 72.0 °F 84% 30.12 in 10.0 mi Calm Calm - N/A   Mostly Cloudy
8:53 PM 75.0 °F - 72.0 °F 90% 30.10 in 10.0 mi North 3.5 mph - N/A   Clear
9:53 PM 75.0 °F - 73.0 °F 94% 30.08 in 10.0 mi Calm Calm - N/A   Clear
10:53 PM 75.0 °F - 72.0 °F 90% 30.10 in 10.0 mi Calm Calm - N/A   Clear
11:53 PM 75.0 °F - 72.0 °F 90% 30.11 in 10.0 mi Calm Calm - N/A   Clear